owner,sensor,date,latitude,longitude,air_temperature,qcFlag 
COMPS,ioos:station:USF.COMPS:C10:1,2013-11-11T19:05:00Z,27.1690,-82.9260,23.6,1111122 
COMPS,ioos:station:USF.COMPS:C10:1,2013-11-11T19:35:00Z,27.1690,-82.9260,23.16,1111122 
COMPS,ioos:station:USF.COMPS:C10:1,2013-11-11T20:05:00Z,27.1690,-82.9260,23.19,1111122 
COMPS,ioos:station:USF.COMPS:C10:1,2013-11-11T20:35:00Z,27.1690,-82.9260,23.44,1111122 
COMPS,ioos:station:USF.COMPS:C10:1,2013-11-11T21:05:00Z,27.1690,-82.9260,23.66,1111122 
COMPS,ioos:station:USF.COMPS:C10:1,2013-11-11T21:35:00Z,27.1690,-82.9260,23.76,1111122 
COMPS,ioos:station:USF.COMPS:C10:1,2013-11-11T22:05:00Z,27.1690,-82.9260,23.74,1111122 
COMPS,ioos:station:USF.COMPS:C10:1,2013-11-11T22:35:00Z,27.1690,-82.9260,23.69,1111122 
COMPS,ioos:station:USF.COMPS:C10:1,2013-11-11T23:05:00Z,27.1690,-82.9260,23.52,1111122 
COMPS,ioos:station:USF.COMPS:C10:1,2013-11-11T23:35:00Z,27.1690,-82.9260,23.39,1111122 
COMPS,ioos:station:USF.COMPS:C10:1,2013-11-12T00:05:00Z,27.1690,-82.9260,23.37,1111122 
COMPS,ioos:station:USF.COMPS:C10:1,2013-11-12T00:35:00Z,27.1690,-82.9260,23.37,1111122 
COMPS,ioos:station:USF.COMPS:C10:1,2013-11-12T01:05:00Z,27.1690,-82.9260,23.42,1111122 
COMPS,ioos:station:USF.COMPS:C10:1,2013-11-12T01:35:00Z,27.1690,-82.9260,23.55,1111122 
COMPS,ioos:station:USF.COMPS:C10:1,2013-11-12T02:05:00Z,27.1690,-82.9260,23.67,1111122 
COMPS,ioos:station:USF.COMPS:C10:1,2013-11-12T02:35:00Z,27.1690,-82.9260,23.71,1111122 
COMPS,ioos:station:USF.COMPS:C10:1,2013-11-12T03:05:00Z,27.1690,-82.9260,23.63,1111122 
COMPS,ioos:station:USF.COMPS:C10:1,2013-11-12T03:35:00Z,27.1690,-82.9260,23.51,1111122 
COMPS,ioos:station:USF.COMPS:C10:1,2013-11-12T04:05:00Z,27.1690,-82.9260,23.49,1111122 
COMPS,ioos:station:USF.COMPS:C10:1,2013-11-12T04:35:00Z,27.1690,-82.9260,23.53,1111122 
COMPS,ioos:station:USF.COMPS:C10:1,2013-11-12T05:05:00Z,27.1690,-82.9260,23.68,1111122 
COMPS,ioos:station:USF.COMPS:C10:1,2013-11-12T05:35:00Z,27.1690,-82.9260,23.6,1111122 
COMPS,ioos:station:USF.COMPS:C10:1,2013-11-12T06:05:00Z,27.1690,-82.9260,23.48,1111122 
COMPS,ioos:station:USF.COMPS:C10:1,2013-11-12T06:35:00Z,27.1690,-82.9260,23.34,1111122 
COMPS,ioos:station:USF.COMPS:C10:1,2013-11-12T07:05:00Z,27.1690,-82.9260,23.22,1111122 
COMPS,ioos:station:USF.COMPS:C10:1,2013-11-12T07:35:00Z,27.1690,-82.9260,23.11,1111122 
COMPS,ioos:station:USF.COMPS:C10:1,2013-11-12T08:05:00Z,27.1690,-82.9260,23.04,1111122 
COMPS,ioos:station:USF.COMPS:C10:1,2013-11-12T08:35:00Z,27.1690,-82.9260,22.93,1111122 
COMPS,ioos:station:USF.COMPS:C10:1,2013-11-12T09:05:00Z,27.1690,-82.9260,22.85,1111122 
COMPS,ioos:station:USF.COMPS:C10:1,2013-11-12T09:35:00Z,27.1690,-82.9260,22.7,1111122 
COMPS,ioos:station:USF.COMPS:C10:1,2013-11-12T10:05:00Z,27.1690,-82.9260,22.67,1111122 
COMPS,ioos:station:USF.COMPS:C10:1,2013-11-12T10:35:00Z,27.1690,-82.9260,22.61,1111122 
COMPS,ioos:station:USF.COMPS:C10:1,2013-11-12T11:05:00Z,27.1690,-82.9260,22.58,1111122 
COMPS,ioos:station:USF.COMPS:C10:1,2013-11-12T11:35:00Z,27.1690,-82.9260,22.37,1111122 
COMPS,ioos:station:USF.COMPS:C10:1,2013-11-12T12:05:00Z,27.1690,-82.9260,22.29,1111122 
COMPS,ioos:station:USF.COMPS:C10:1,2013-11-12T12:35:00Z,27.1690,-82.9260,22.24,1111122 
COMPS,ioos:station:USF.COMPS:C10:1,2013-11-12T13:05:00Z,27.1690,-82.9260,22.13,1111122 
COMPS,ioos:station:USF.COMPS:C10:1,2013-11-12T13:35:00Z,27.1690,-82.9260,22.2,1111122 
COMPS,ioos:station:USF.COMPS:C10:1,2013-11-12T14:05:00Z,27.1690,-82.9260,22.39,1111122 
COMPS,ioos:station:USF.COMPS:C10:1,2013-11-12T14:35:00Z,27.1690,-82.9260,22.47,1111122 
COMPS,ioos:station:USF.COMPS:C10:1,2013-11-12T15:05:00Z,27.1690,-82.9260,22.58,1111122 
COMPS,ioos:station:USF.COMPS:C10:1,2013-11-12T15:35:00Z,27.1690,-82.9260,22.75,1111122 
COMPS,ioos:station:USF.COMPS:C10:1,2013-11-12T16:05:00Z,27.1690,-82.9260,22.89,1111122 
COMPS,ioos:station:USF.COMPS:C10:1,2013-11-12T16:35:00Z,27.1690,-82.9260,23.01,1111122 
COMPS,ioos:station:USF.COMPS:C10:1,2013-11-12T17:05:00Z,27.1690,-82.9260,23.09,1111122 
COMPS,ioos:station:USF.COMPS:C10:1,2013-11-12T17:35:00Z,27.1690,-82.9260,23.14,1111122 
COMPS,ioos:station:USF.COMPS:C10:1,2013-11-12T18:05:00Z,27.1690,-82.9260,23.18,1111122 
COMPS,ioos:station:USF.COMPS:C10:1,2013-11-12T18:35:00Z,27.1690,-82.9260,23.16,1111122 
COMPS,ioos:station:USF.COMPS:C10:1,2013-11-13T15:05:00Z,27.1690,-82.9260,17.44,1111122 
COMPS,ioos:station:USF.COMPS:C10:1,2013-11-13T15:35:00Z,27.1690,-82.9260,17.63,1111122 
COMPS,ioos:station:USF.COMPS:C10:1,2013-11-13T16:05:00Z,27.1690,-82.9260,17.63,1111122 
COMPS,ioos:station:USF.COMPS:C10:1,2013-11-13T16:35:00Z,27.1690,-82.9260,17.63,1111122 
COMPS,ioos:station:USF.COMPS:C10:1,2013-11-13T17:05:00Z,27.1690,-82.9260,18.0,1111122 
COMPS,ioos:station:USF.COMPS:C10:1,2013-11-13T17:35:00Z,27.1690,-82.9260,18.18,1111122 
COMPS,ioos:station:USF.COMPS:C10:1,2013-11-13T18:05:00Z,27.1690,-82.9260,18.18,1111122 
COMPS,ioos:station:USF.COMPS:C10:1,2013-11-13T18:35:00Z,27.1690,-82.9260,18.31,1111122 
COMPS,ioos:station:USF.COMPS:C10:1,2013-11-13T19:05:00Z,27.1690,-82.9260,18.67,1111122 
COMPS,ioos:station:USF.COMPS:C10:1,2013-11-13T19:35:00Z,27.1690,-82.9260,18.69,1111122 
COMPS,ioos:station:USF.COMPS:C10:1,2013-11-13T20:05:00Z,27.1690,-82.9260,18.91,1111122 
COMPS,ioos:station:USF.COMPS:C10:1,2013-11-13T20:35:00Z,27.1690,-82.9260,19.08,1111122 
COMPS,ioos:station:USF.COMPS:C10:1,2013-11-13T21:05:00Z,27.1690,-82.9260,18.9,1111122 
COMPS,ioos:station:USF.COMPS:C10:1,2013-11-13T21:35:00Z,27.1690,-82.9260,19.24,1111122 
COMPS,ioos:station:USF.COMPS:C10:1,2013-11-13T22:05:00Z,27.1690,-82.9260,19.2,1111122 
COMPS,ioos:station:USF.COMPS:C10:1,2013-11-13T22:35:00Z,27.1690,-82.9260,18.83,1111122 
COMPS,ioos:station:USF.COMPS:C10:1,2013-11-13T23:05:00Z,27.1690,-82.9260,18.65,1111122 
COMPS,ioos:station:USF.COMPS:C10:1,2013-11-13T23:35:00Z,27.1690,-82.9260,18.24,1111122 
COMPS,ioos:station:USF.COMPS:C10:1,2013-11-14T00:05:00Z,27.1690,-82.9260,17.79,1111122 
COMPS,ioos:station:USF.COMPS:C10:1,2013-11-14T00:35:00Z,27.1690,-82.9260,17.43,1111122 
COMPS,ioos:station:USF.COMPS:C10:1,2013-11-14T01:05:00Z,27.1690,-82.9260,17.54,1111122 
COMPS,ioos:station:USF.COMPS:C10:1,2013-11-14T01:35:00Z,27.1690,-82.9260,17.25,1111122 
COMPS,ioos:station:USF.COMPS:C10:1,2013-11-14T02:05:00Z,27.1690,-82.9260,17.13,1111122 
COMPS,ioos:station:USF.COMPS:C10:1,2013-11-14T02:35:00Z,27.1690,-82.9260,16.92,1111122 
COMPS,ioos:station:USF.COMPS:C10:1,2013-11-14T03:05:00Z,27.1690,-82.9260,17.01,1111122 
COMPS,ioos:station:USF.COMPS:C10:1,2013-11-14T03:35:00Z,27.1690,-82.9260,17.08,1111122 
COMPS,ioos:station:USF.COMPS:C10:1,2013-11-14T04:05:00Z,27.1690,-82.9260,16.89,1111122 
COMPS,ioos:station:USF.COMPS:C10:1,2013-11-14T04:35:00Z,27.1690,-82.9260,17.02,1111122 
COMPS,ioos:station:USF.COMPS:C10:1,2013-11-14T05:05:00Z,27.1690,-82.9260,16.88,1111122 
COMPS,ioos:station:USF.COMPS:C10:1,2013-11-14T05:35:00Z,27.1690,-82.9260,17.02,1111122 
COMPS,ioos:station:USF.COMPS:C10:1,2013-11-14T06:05:00Z,27.1690,-82.9260,17.01,1111122 
COMPS,ioos:station:USF.COMPS:C10:1,2013-11-14T06:35:00Z,27.1690,-82.9260,17.25,1111122 
COMPS,ioos:station:USF.COMPS:C10:1,2013-11-14T07:05:00Z,27.1690,-82.9260,17.15,1111122 
COMPS,ioos:station:USF.COMPS:C10:1,2013-11-14T07:35:00Z,27.1690,-82.9260,17.35,1111122 
COMPS,ioos:station:USF.COMPS:C10:1,2013-11-14T08:05:00Z,27.1690,-82.9260,17.67,1111122 
COMPS,ioos:station:USF.COMPS:C10:1,2013-11-14T08:35:00Z,27.1690,-82.9260,17.8,1111122 
COMPS,ioos:station:USF.COMPS:C10:1,2013-11-14T09:05:00Z,27.1690,-82.9260,17.96,1111122 
COMPS,ioos:station:USF.COMPS:C10:1,2013-11-14T09:35:00Z,27.1690,-82.9260,17.97,1111122 
COMPS,ioos:station:USF.COMPS:C10:1,2013-11-14T10:05:00Z,27.1690,-82.9260,18.08,1111122 
COMPS,ioos:station:USF.COMPS:C10:1,2013-11-14T10:35:00Z,27.1690,-82.9260,18.12,1111122 
COMPS,ioos:station:USF.COMPS:C10:1,2013-11-14T11:05:00Z,27.1690,-82.9260,17.95,1111122 
COMPS,ioos:station:USF.COMPS:C10:1,2013-11-14T11:35:00Z,27.1690,-82.9260,17.84,1111122 
COMPS,ioos:station:USF.COMPS:C10:1,2013-11-14T12:05:00Z,27.1690,-82.9260,17.98,1111122 
COMPS,ioos:station:USF.COMPS:C10:1,2013-11-14T12:35:00Z,27.1690,-82.9260,17.98,1111122 
COMPS,ioos:station:USF.COMPS:C10:1,2013-11-14T13:05:00Z,27.1690,-82.9260,18.43,1111122 
COMPS,ioos:station:USF.COMPS:C10:1,2013-11-14T13:35:00Z,27.1690,-82.9260,18.35,1111122 
COMPS,ioos:station:USF.COMPS:C10:1,2013-11-14T14:05:00Z,27.1690,-82.9260,18.49,1111122 
COMPS,ioos:station:USF.COMPS:C10:1,2013-11-14T14:35:00Z,27.1690,-82.9260,18.82,1111122 
COMPS,ioos:station:USF.COMPS:C10:1,2013-11-18T07:05:00Z,27.1690,-82.9260,23.17,1111122 
COMPS,ioos:station:USF.COMPS:C10:1,2013-11-18T07:35:00Z,27.1690,-82.9260,23.06,1111122 
COMPS,ioos:station:USF.COMPS:C10:1,2013-11-18T08:05:00Z,27.1690,-82.9260,23.08,1111122 
COMPS,ioos:station:USF.COMPS:C10:1,2013-11-18T08:35:00Z,27.1690,-82.9260,23.02,1111122 
COMPS,ioos:station:USF.COMPS:C10:1,2013-11-18T09:05:00Z,27.1690,-82.9260,23.02,1111122 
COMPS,ioos:station:USF.COMPS:C10:1,2013-11-18T09:35:00Z,27.1690,-82.9260,22.95,1111122 
COMPS,ioos:station:USF.COMPS:C10:1,2013-11-18T10:05:00Z,27.1690,-82.9260,22.97,1111122 
COMPS,ioos:station:USF.COMPS:C10:1,2013-11-18T10:35:00Z,27.1690,-82.9260,22.85,1111122 
COMPS,ioos:station:USF.COMPS:C10:1,2013-11-18T11:05:00Z,27.1690,-82.9260,22.8,1111122 
COMPS,ioos:station:USF.COMPS:C10:1,2013-11-18T11:35:00Z,27.1690,-82.9260,22.77,1111122 
COMPS,ioos:station:USF.COMPS:C10:1,2013-11-18T12:05:00Z,27.1690,-82.9260,22.77,1111122 
COMPS,ioos:station:USF.COMPS:C10:1,2013-11-18T12:35:00Z,27.1690,-82.9260,22.94,1111122 
COMPS,ioos:station:USF.COMPS:C10:1,2013-11-18T13:05:00Z,27.1690,-82.9260,23.14,1111122 
COMPS,ioos:station:USF.COMPS:C10:1,2013-11-18T13:35:00Z,27.1690,-82.9260,23.04,1111122 
COMPS,ioos:station:USF.COMPS:C10:1,2013-11-18T14:05:00Z,27.1690,-82.9260,23.0,1111122 
COMPS,ioos:station:USF.COMPS:C10:1,2013-11-18T14:35:00Z,27.1690,-82.9260,23.0,1111122 
COMPS,ioos:station:USF.COMPS:C10:1,2013-11-18T15:05:00Z,27.1690,-82.9260,22.96,1111122 
COMPS,ioos:station:USF.COMPS:C10:1,2013-11-18T15:35:00Z,27.1690,-82.9260,23.01,1111122 
COMPS,ioos:station:USF.COMPS:C10:1,2013-11-18T16:05:00Z,27.1690,-82.9260,23.09,1111122 
COMPS,ioos:station:USF.COMPS:C10:1,2013-11-18T16:35:00Z,27.1690,-82.9260,23.2,1111122 
COMPS,ioos:station:USF.COMPS:C10:1,2013-11-18T17:05:00Z,27.1690,-82.9260,23.51,1111122 
COMPS,ioos:station:USF.COMPS:C10:1,2013-11-18T17:35:00Z,27.1690,-82.9260,23.77,1111122 
COMPS,ioos:station:USF.COMPS:C10:1,2013-11-18T18:05:00Z,27.1690,-82.9260,23.85,1111122 
COMPS,ioos:station:USF.COMPS:C10:1,2013-11-18T18:35:00Z,27.1690,-82.9260,24.22,1111122 
COMPS,ioos:station:USF.COMPS:C10:1,2013-11-18T19:05:00Z,27.1690,-82.9260,24.27,1111122 
COMPS,ioos:station:USF.COMPS:C10:1,2013-11-18T19:35:00Z,27.1690,-82.9260,24.18,1111122 
COMPS,ioos:station:USF.COMPS:C10:1,2013-11-18T20:05:00Z,27.1690,-82.9260,24.01,1111122 
COMPS,ioos:station:USF.COMPS:C10:1,2013-11-18T20:35:00Z,27.1690,-82.9260,23.87,1111122 
COMPS,ioos:station:USF.COMPS:C10:1,2013-11-18T21:05:00Z,27.1690,-82.9260,23.88,1111122 
COMPS,ioos:station:USF.COMPS:C10:1,2013-11-18T21:35:00Z,27.1690,-82.9260,23.86,1111122 
COMPS,ioos:station:USF.COMPS:C10:1,2013-11-18T22:05:00Z,27.1690,-82.9260,23.68,1111122 
COMPS,ioos:station:USF.COMPS:C10:1,2013-11-18T22:35:00Z,27.1690,-82.9260,23.66,1111122 
COMPS,ioos:station:USF.COMPS:C10:1,2013-11-18T23:05:00Z,27.1690,-82.9260,23.56,1111122 
COMPS,ioos:station:USF.COMPS:C10:1,2013-11-18T23:35:00Z,27.1690,-82.9260,23.49,1111122 
COMPS,ioos:station:USF.COMPS:C10:1,2013-11-19T00:05:00Z,27.1690,-82.9260,23.5,1111122 
COMPS,ioos:station:USF.COMPS:C10:1,2013-11-19T00:35:00Z,27.1690,-82.9260,23.41,1111122 
COMPS,ioos:station:USF.COMPS:C10:1,2013-11-19T01:05:00Z,27.1690,-82.9260,23.37,1111122 
COMPS,ioos:station:USF.COMPS:C10:1,2013-11-19T01:35:00Z,27.1690,-82.9260,23.35,1111122 
COMPS,ioos:station:USF.COMPS:C10:1,2013-11-19T02:05:00Z,27.1690,-82.9260,23.35,1111122 
COMPS,ioos:station:USF.COMPS:C10:1,2013-11-19T02:35:00Z,27.1690,-82.9260,23.37,1111122 
COMPS,ioos:station:USF.COMPS:C10:1,2013-11-19T03:05:00Z,27.1690,-82.9260,23.4,1111122 
COMPS,ioos:station:USF.COMPS:C10:1,2013-11-19T03:35:00Z,27.1690,-82.9260,23.42,1111122 
COMPS,ioos:station:USF.COMPS:C10:1,2013-11-19T04:05:00Z,27.1690,-82.9260,23.41,1111122 
COMPS,ioos:station:USF.COMPS:C10:1,2013-11-19T04:35:00Z,27.1690,-82.9260,23.25,1111122 
COMPS,ioos:station:USF.COMPS:C10:1,2013-11-19T05:05:00Z,27.1690,-82.9260,23.33,1111122 
COMPS,ioos:station:USF.COMPS:C10:1,2013-11-19T05:35:00Z,27.1690,-82.9260,23.38,1111122 
COMPS,ioos:station:USF.COMPS:C10:1,2013-11-19T06:05:00Z,27.1690,-82.9260,23.43,1111122 
COMPS,ioos:station:USF.COMPS:C10:1,2013-11-19T06:35:00Z,27.1690,-82.9260,23.32,1111122 
COMPS,ioos:station:USF.COMPS:C10:1,2013-11-19T07:05:00Z,27.1690,-82.9260,23.41,1111122 
COMPS,ioos:station:USF.COMPS:C10:1,2013-11-19T07:35:00Z,27.1690,-82.9260,23.48,1111122 
COMPS,ioos:station:USF.COMPS:C10:1,2013-11-19T08:05:00Z,27.1690,-82.9260,23.45,1111122 
COMPS,ioos:station:USF.COMPS:C10:1,2013-11-19T08:35:00Z,27.1690,-82.9260,23.51,1111122 
COMPS,ioos:station:USF.COMPS:C10:1,2013-11-19T09:05:00Z,27.1690,-82.9260,23.42,1111122 
COMPS,ioos:station:USF.COMPS:C10:1,2013-11-19T09:35:00Z,27.1690,-82.9260,23.38,1111122 
COMPS,ioos:station:USF.COMPS:C10:1,2013-11-19T10:05:00Z,27.1690,-82.9260,23.53,1111122 
COMPS,ioos:station:USF.COMPS:C10:1,2013-11-19T10:35:00Z,27.1690,-82.9260,23.56,1111122 
COMPS,ioos:station:USF.COMPS:C10:1,2013-11-19T11:05:00Z,27.1690,-82.9260,23.56,1111122 
COMPS,ioos:station:USF.COMPS:C10:1,2013-11-19T11:35:00Z,27.1690,-82.9260,22.91,1111122 
COMPS,ioos:station:USF.COMPS:C10:1,2013-11-19T12:05:00Z,27.1690,-82.9260,23.17,1111122 
COMPS,ioos:station:USF.COMPS:C10:1,2013-11-19T12:35:00Z,27.1690,-82.9260,23.14,1111122 
COMPS,ioos:station:USF.COMPS:C10:1,2013-11-19T13:05:00Z,27.1690,-82.9260,22.84,1111122 
COMPS,ioos:station:USF.COMPS:C10:1,2013-11-19T13:35:00Z,27.1690,-82.9260,22.76,1111122 
COMPS,ioos:station:USF.COMPS:C10:1,2013-11-19T14:05:00Z,27.1690,-82.9260,22.67,1111122 
COMPS,ioos:station:USF.COMPS:C10:1,2013-11-19T14:35:00Z,27.1690,-82.9260,22.74,1111122 
COMPS,ioos:station:USF.COMPS:C10:1,2013-11-19T15:05:00Z,27.1690,-82.9260,22.76,1111122 
COMPS,ioos:station:USF.COMPS:C10:1,2013-11-19T15:35:00Z,27.1690,-82.9260,22.76,1111122 
COMPS,ioos:station:USF.COMPS:C10:1,2013-11-19T16:05:00Z,27.1690,-82.9260,22.79,1111122 
COMPS,ioos:station:USF.COMPS:C10:1,2013-11-19T16:35:00Z,27.1690,-82.9260,22.74,1111122 
COMPS,ioos:station:USF.COMPS:C10:1,2013-11-19T17:05:00Z,27.1690,-82.9260,22.7,1111122 
COMPS,ioos:station:USF.COMPS:C10:1,2013-11-19T17:35:00Z,27.1690,-82.9260,22.77,1111122 
COMPS,ioos:station:USF.COMPS:C10:1,2013-11-19T18:05:00Z,27.1690,-82.9260,22.69,1111122 
COMPS,ioos:station:USF.COMPS:C10:1,2013-11-19T18:35:00Z,27.1690,-82.9260,22.63,1111122 
COMPS,ioos:station:USF.COMPS:C10:1,2013-11-19T19:05:00Z,27.1690,-82.9260,22.75,1111122 
COMPS,ioos:station:USF.COMPS:C10:1,2013-11-19T19:35:00Z,27.1690,-82.9260,22.71,1111122 
COMPS,ioos:station:USF.COMPS:C10:1,2013-11-19T20:05:00Z,27.1690,-82.9260,22.92,1111122 
COMPS,ioos:station:USF.COMPS:C10:1,2013-11-19T20:35:00Z,27.1690,-82.9260,22.99,1111122 
COMPS,ioos:station:USF.COMPS:C10:1,2013-11-19T21:05:00Z,27.1690,-82.9260,23.03,1111122 
COMPS,ioos:station:USF.COMPS:C10:1,2013-11-19T21:35:00Z,27.1690,-82.9260,22.97,1111122 
COMPS,ioos:station:USF.COMPS:C10:1,2013-11-19T22:05:00Z,27.1690,-82.9260,22.94,1111122 
COMPS,ioos:station:USF.COMPS:C10:1,2013-11-19T22:35:00Z,27.1690,-82.9260,23.02,1111122 
COMPS,ioos:station:USF.COMPS:C10:1,2013-11-19T23:05:00Z,27.1690,-82.9260,22.95,1111122 
COMPS,ioos:station:USF.COMPS:C10:1,2013-11-19T23:35:00Z,27.1690,-82.9260,22.58,1111122 
COMPS,ioos:station:USF.COMPS:C10:1,2013-11-20T00:05:00Z,27.1690,-82.9260,22.36,1111122 
COMPS,ioos:station:USF.COMPS:C10:1,2013-11-20T00:35:00Z,27.1690,-82.9260,22.59,1111122 
COMPS,ioos:station:USF.COMPS:C10:1,2013-11-20T01:05:00Z,27.1690,-82.9260,22.89,1111122 
COMPS,ioos:station:USF.COMPS:C10:1,2013-11-20T01:35:00Z,27.1690,-82.9260,22.82,1111122 
COMPS,ioos:station:USF.COMPS:C10:1,2013-11-20T02:05:00Z,27.1690,-82.9260,23.07,1111122 
COMPS,ioos:station:USF.COMPS:C10:1,2013-11-20T02:35:00Z,27.1690,-82.9260,23.23,1111122 
COMPS,ioos:station:USF.COMPS:C10:1,2013-11-20T03:05:00Z,27.1690,-82.9260,23.27,1111122 
COMPS,ioos:station:USF.COMPS:C10:1,2013-11-20T03:35:00Z,27.1690,-82.9260,23.13,1111122 
COMPS,ioos:station:USF.COMPS:C10:1,2013-11-20T04:05:00Z,27.1690,-82.9260,22.95,1111122 
COMPS,ioos:station:USF.COMPS:C10:1,2013-11-20T04:35:00Z,27.1690,-82.9260,22.72,1111122 
COMPS,ioos:station:USF.COMPS:C10:1,2013-11-20T18:05:00Z,27.1690,-82.9260,22.24,1111122 
COMPS,ioos:station:USF.COMPS:C10:1,2013-11-20T18:35:00Z,27.1690,-82.9260,22.21,1111122 
COMPS,ioos:station:USF.COMPS:C10:1,2013-11-20T19:05:00Z,27.1690,-82.9260,22.45,1111122 
COMPS,ioos:station:USF.COMPS:C10:1,2013-11-20T19:35:00Z,27.1690,-82.9260,22.62,1111122 
COMPS,ioos:station:USF.COMPS:C10:1,2013-11-20T20:05:00Z,27.1690,-82.9260,22.68,1111122 
COMPS,ioos:station:USF.COMPS:C10:1,2013-11-20T20:35:00Z,27.1690,-82.9260,22.99,1111122 
COMPS,ioos:station:USF.COMPS:C10:1,2013-11-20T21:05:00Z,27.1690,-82.9260,22.84,1111122 
COMPS,ioos:station:USF.COMPS:C10:1,2013-11-20T21:35:00Z,27.1690,-82.9260,22.9,1111122 
COMPS,ioos:station:USF.COMPS:C10:1,2013-11-20T22:05:00Z,27.1690,-82.9260,22.97,1111122 
COMPS,ioos:station:USF.COMPS:C10:1,2013-11-20T22:35:00Z,27.1690,-82.9260,23.05,1111122 
COMPS,ioos:station:USF.COMPS:C10:1,2013-11-20T23:05:00Z,27.1690,-82.9260,23.1,1111122 
COMPS,ioos:station:USF.COMPS:C10:1,2013-11-20T23:35:00Z,27.1690,-82.9260,23.22,1111122 
COMPS,ioos:station:USF.COMPS:C10:1,2013-11-21T00:05:00Z,27.1690,-82.9260,23.63,1111122 
COMPS,ioos:station:USF.COMPS:C10:1,2013-11-21T00:35:00Z,27.1690,-82.9260,23.45,1111122 
COMPS,ioos:station:USF.COMPS:C10:1,2013-11-21T01:05:00Z,27.1690,-82.9260,23.3,1111122 
COMPS,ioos:station:USF.COMPS:C10:1,2013-11-21T01:35:00Z,27.1690,-82.9260,23.19,1111122 
COMPS,ioos:station:USF.COMPS:C10:1,2013-11-21T02:05:00Z,27.1690,-82.9260,23.27,1111122 
COMPS,ioos:station:USF.COMPS:C10:1,2013-11-21T02:35:00Z,27.1690,-82.9260,23.18,1111122 
COMPS,ioos:station:USF.COMPS:C10:1,2013-11-21T03:05:00Z,27.1690,-82.9260,23.07,1111122 
COMPS,ioos:station:USF.COMPS:C10:1,2013-11-21T03:35:00Z,27.1690,-82.9260,22.99,1111122 
COMPS,ioos:station:USF.COMPS:C10:1,2013-11-21T04:05:00Z,27.1690,-82.9260,22.86,1111122 
COMPS,ioos:station:USF.COMPS:C10:1,2013-11-21T04:35:00Z,27.1690,-82.9260,22.83,1111122 
COMPS,ioos:station:USF.COMPS:C10:1,2013-11-21T05:05:00Z,27.1690,-82.9260,22.7,1111122 
COMPS,ioos:station:USF.COMPS:C10:1,2013-11-21T05:35:00Z,27.1690,-82.9260,22.68,1111122 
COMPS,ioos:station:USF.COMPS:C10:1,2013-11-21T06:05:00Z,27.1690,-82.9260,22.52,1111122 
COMPS,ioos:station:USF.COMPS:C10:1,2013-11-21T06:35:00Z,27.1690,-82.9260,22.56,1111122 
COMPS,ioos:station:USF.COMPS:C10:1,2013-11-21T07:05:00Z,27.1690,-82.9260,22.52,1111122 
COMPS,ioos:station:USF.COMPS:C10:1,2013-11-21T07:35:00Z,27.1690,-82.9260,22.52,1111122 
COMPS,ioos:station:USF.COMPS:C10:1,2013-11-21T08:05:00Z,27.1690,-82.9260,22.41,1111122 
COMPS,ioos:station:USF.COMPS:C10:1,2013-11-21T08:35:00Z,27.1690,-82.9260,22.37,1111122 
COMPS,ioos:station:USF.COMPS:C10:1,2013-11-21T09:05:00Z,27.1690,-82.9260,22.46,1111122 
COMPS,ioos:station:USF.COMPS:C10:1,2013-11-21T09:35:00Z,27.1690,-82.9260,22.41,1111122 
COMPS,ioos:station:USF.COMPS:C10:1,2013-11-21T10:05:00Z,27.1690,-82.9260,22.41,1111122 
COMPS,ioos:station:USF.COMPS:C10:1,2013-11-21T10:35:00Z,27.1690,-82.9260,22.34,1111122 
COMPS,ioos:station:USF.COMPS:C10:1,2013-11-21T11:05:00Z,27.1690,-82.9260,22.39,1111122 
COMPS,ioos:station:USF.COMPS:C10:1,2013-11-21T11:35:00Z,27.1690,-82.9260,22.46,1111122 
COMPS,ioos:station:USF.COMPS:C10:1,2013-11-21T12:05:00Z,27.1690,-82.9260,22.51,1111122 
COMPS,ioos:station:USF.COMPS:C10:1,2013-11-21T12:35:00Z,27.1690,-82.9260,22.54,1111122 
COMPS,ioos:station:USF.COMPS:C10:1,2013-11-21T13:05:00Z,27.1690,-82.9260,22.59,1111122 
COMPS,ioos:station:USF.COMPS:C10:1,2013-11-21T13:35:00Z,27.1690,-82.9260,22.72,1111122 
COMPS,ioos:station:USF.COMPS:C10:1,2013-11-21T14:05:00Z,27.1690,-82.9260,22.81,1111122 
COMPS,ioos:station:USF.COMPS:C10:1,2013-11-21T14:35:00Z,27.1690,-82.9260,22.82,1111122 
COMPS,ioos:station:USF.COMPS:C10:1,2013-11-21T15:05:00Z,27.1690,-82.9260,22.94,1111122 
COMPS,ioos:station:USF.COMPS:C10:1,2013-11-21T15:35:00Z,27.1690,-82.9260,23.0,1111122 
COMPS,ioos:station:USF.COMPS:C10:1,2013-11-21T16:05:00Z,27.1690,-82.9260,23.05,1111122 
COMPS,ioos:station:USF.COMPS:C10:1,2013-11-21T16:35:00Z,27.1690,-82.9260,23.2,1111122 
COMPS,ioos:station:USF.COMPS:C10:1,2013-11-21T17:05:00Z,27.1690,-82.9260,23.4,1111122 
COMPS,ioos:station:USF.COMPS:C10:1,2013-11-21T17:35:00Z,27.1690,-82.9260,23.57,1111122 
COMPS,ioos:station:USF.COMPS:C10:1,2013-11-21T18:05:00Z,27.1690,-82.9260,23.69,1111122 
COMPS,ioos:station:USF.COMPS:C10:1,2013-11-21T18:35:00Z,27.1690,-82.9260,23.86,1111122 
COMPS,ioos:station:USF.COMPS:C10:1,2013-11-24T10:05:00Z,27.1690,-82.9260,21.65,1111122 
COMPS,ioos:station:USF.COMPS:C10:1,2013-11-24T10:35:00Z,27.1690,-82.9260,21.64,1111122 
COMPS,ioos:station:USF.COMPS:C10:1,2013-11-24T11:05:00Z,27.1690,-82.9260,21.66,1111122 
COMPS,ioos:station:USF.COMPS:C10:1,2013-11-24T11:35:00Z,27.1690,-82.9260,21.44,1111122 
COMPS,ioos:station:USF.COMPS:C10:1,2013-11-24T12:05:00Z,27.1690,-82.9260,21.25,1111122 
COMPS,ioos:station:USF.COMPS:C10:1,2013-11-24T12:35:00Z,27.1690,-82.9260,21.23,1111122 
COMPS,ioos:station:USF.COMPS:C10:1,2013-11-24T13:05:00Z,27.1690,-82.9260,21.25,1111122 
COMPS,ioos:station:USF.COMPS:C10:1,2013-11-24T13:35:00Z,27.1690,-82.9260,21.28,1111122 
COMPS,ioos:station:USF.COMPS:C10:1,2013-11-24T14:05:00Z,27.1690,-82.9260,21.21,1111122 
COMPS,ioos:station:USF.COMPS:C10:1,2013-11-24T14:35:00Z,27.1690,-82.9260,20.97,1111122 
COMPS,ioos:station:USF.COMPS:C10:1,2013-11-24T15:05:00Z,27.1690,-82.9260,21.01,1111122 
COMPS,ioos:station:USF.COMPS:C10:1,2013-11-24T15:35:00Z,27.1690,-82.9260,20.7,1111122 
COMPS,ioos:station:USF.COMPS:C10:1,2013-11-24T16:05:00Z,27.1690,-82.9260,20.44,1111122 
COMPS,ioos:station:USF.COMPS:C10:1,2013-11-24T16:35:00Z,27.1690,-82.9260,20.41,1111122 
COMPS,ioos:station:USF.COMPS:C10:1,2013-11-24T17:05:00Z,27.1690,-82.9260,20.35,1111122 
COMPS,ioos:station:USF.COMPS:C10:1,2013-11-24T17:35:00Z,27.1690,-82.9260,20.59,1111122 
COMPS,ioos:station:USF.COMPS:C10:1,2013-11-24T18:05:00Z,27.1690,-82.9260,20.53,1111122 
COMPS,ioos:station:USF.COMPS:C10:1,2013-11-24T18:35:00Z,27.1690,-82.9260,20.7,1111122 
COMPS,ioos:station:USF.COMPS:C10:1,2013-11-24T19:05:00Z,27.1690,-82.9260,21.01,1111122 
COMPS,ioos:station:USF.COMPS:C10:1,2013-11-24T19:35:00Z,27.1690,-82.9260,21.16,1111122 
COMPS,ioos:station:USF.COMPS:C10:1,2013-11-24T20:05:00Z,27.1690,-82.9260,21.54,1111122 
COMPS,ioos:station:USF.COMPS:C10:1,2013-11-24T20:35:00Z,27.1690,-82.9260,21.57,1111122 
COMPS,ioos:station:USF.COMPS:C10:1,2013-11-24T22:05:00Z,27.1690,-82.9260,21.4,1111122 
COMPS,ioos:station:USF.COMPS:C10:1,2013-11-24T22:35:00Z,27.1690,-82.9260,21.0,1111122 
COMPS,ioos:station:USF.COMPS:C10:1,2013-11-24T23:05:00Z,27.1690,-82.9260,20.63,1111122 
COMPS,ioos:station:USF.COMPS:C10:1,2013-11-24T23:35:00Z,27.1690,-82.9260,20.19,1111122 
COMPS,ioos:station:USF.COMPS:C10:1,2013-11-25T00:05:00Z,27.1690,-82.9260,19.68,1111122 
COMPS,ioos:station:USF.COMPS:C10:1,2013-11-25T00:35:00Z,27.1690,-82.9260,19.26,1111122 
COMPS,ioos:station:USF.COMPS:C10:1,2013-11-25T01:05:00Z,27.1690,-82.9260,18.99,1111122 
COMPS,ioos:station:USF.COMPS:C10:1,2013-11-25T01:35:00Z,27.1690,-82.9260,18.84,1111122 
COMPS,ioos:station:USF.COMPS:C10:1,2013-11-25T02:05:00Z,27.1690,-82.9260,18.45,1111122 
COMPS,ioos:station:USF.COMPS:C10:1,2013-11-25T02:35:00Z,27.1690,-82.9260,18.4,1111122 
COMPS,ioos:station:USF.COMPS:C10:1,2013-11-25T03:05:00Z,27.1690,-82.9260,18.03,1111122 
COMPS,ioos:station:USF.COMPS:C10:1,2013-11-25T03:35:00Z,27.1690,-82.9260,17.95,1111122 